Time,TemperatureF,DewpointF,PressureIn,WindDirection,WindDirectionDegrees,WindSpeedMPH,WindSpeedGustMPH,Humidity,HourlyPrecipIn,Conditions,Clouds,dailyrainin,SoftwareType,DateUTC
2013-03-23 00:00:00,22.7,18.8,27.70,ESE,113,0.0,0.2,85,0.00,,,0.00,WUHU216HW,2013-03-23 07:00:00,
2013-03-23 00:05:00,22.7,18.5,27.70,ESE,113,0.2,0.2,84,0.00,,,0.00,WUHU216HW,2013-03-23 07:05:00,
2013-03-23 00:11:00,22.5,18.6,27.70,ESE,113,0.2,0.4,85,0.00,,,0.00,WUHU216HW,2013-03-23 07:11:00,
2013-03-23 00:15:00,22.3,18.5,27.70,ESE,113,0.0,0.4,85,0.00,,,0.00,WUHU216HW,2013-03-23 07:15:00,
2013-03-23 00:21:00,22.1,18.3,27.70,ESE,113,0.0,0.4,85,0.00,,,0.00,WUHU216HW,2013-03-23 07:21:00,
2013-03-23 00:25:00,22.0,18.1,27.70,ESE,113,0.2,0.4,85,0.00,,,0.00,WUHU216HW,2013-03-23 07:25:00,
2013-03-23 00:30:00,22.0,18.4,27.70,ESE,113,0.0,0.4,86,0.00,,,0.00,WUHU216HW,2013-03-23 07:30:00,
2013-03-23 00:35:00,22.0,18.1,27.70,ESE,113,0.0,0.2,85,0.00,,,0.00,WUHU216HW,2013-03-23 07:35:00,
2013-03-23 00:40:00,21.8,18.2,27.69,ESE,113,0.0,0.0,86,0.00,,,0.00,WUHU216HW,2013-03-23 07:40:00,
2013-03-23 00:45:00,21.6,17.7,27.69,ESE,113,0.0,0.0,85,0.00,,,0.00,WUHU216HW,2013-03-23 07:45:00,
2013-03-23 00:50:00,21.2,17.4,27.69,ESE,113,0.0,0.0,85,0.00,,,0.00,WUHU216HW,2013-03-23 07:50:00,
2013-03-23 00:55:00,21.1,17.5,27.68,ESE,113,0.0,0.0,86,0.00,,,0.00,WUHU216HW,2013-03-23 07:55:00,
2013-03-23 01:00:00,21.1,17.2,27.68,ESE,113,0.0,0.0,85,0.00,,,0.00,WUHU216HW,2013-03-23 08:00:00,
2013-03-23 01:05:00,21.1,17.5,27.68,East,90,0.0,0.0,86,0.00,,,0.00,WUHU216HW,2013-03-23 08:05:00,
2013-03-23 01:10:00,21.1,17.5,27.68,East,90,0.0,0.0,86,0.00,,,0.00,WUHU216HW,2013-03-23 08:10:00,
2013-03-23 01:16:00,21.1,17.7,27.68,East,90,0.0,0.0,87,0.00,,,0.00,WUHU216HW,2013-03-23 08:16:00,
2013-03-23 01:21:00,20.9,17.3,27.68,East,90,0.0,0.0,86,0.00,,,0.00,WUHU216HW,2013-03-23 08:21:00,
2013-03-23 01:26:00,20.7,17.1,27.69,East,90,0.0,0.0,86,0.00,,,0.00,WUHU216HW,2013-03-23 08:26:00,
2013-03-23 01:31:00,20.5,16.9,27.69,East,90,0.0,0.0,86,0.00,,,0.00,WUHU216HW,2013-03-23 08:31:00,
2013-03-23 01:36:00,20.3,16.7,27.69,East,90,0.0,0.0,86,0.00,,,0.00,WUHU216HW,2013-03-23 08:36:00,
2013-03-23 01:41:00,20.3,16.7,27.69,East,90,0.0,0.0,86,0.00,,,0.00,WUHU216HW,2013-03-23 08:41:00,
2013-03-23 01:46:00,20.3,17.0,27.69,East,90,0.0,0.0,87,0.00,,,0.00,WUHU216HW,2013-03-23 08:46:00,
2013-03-23 01:51:00,20.2,16.6,27.69,East,90,0.0,0.0,86,0.00,,,0.00,WUHU216HW,2013-03-23 08:51:00,
2013-03-23 01:56:00,20.0,16.4,27.69,East,90,0.0,0.0,86,0.00,,,0.00,WUHU216HW,2013-03-23 08:56:00,
2013-03-23 02:01:00,20.0,16.7,27.69,East,90,0.0,0.0,87,0.00,,,0.00,WUHU216HW,2013-03-23 09:01:00,
2013-03-23 02:06:00,19.8,16.5,27.69,East,90,0.0,0.0,87,0.00,,,0.00,WUHU216HW,2013-03-23 09:06:00,
2013-03-23 02:11:00,19.8,16.5,27.69,East,90,0.0,0.0,87,0.00,,,0.00,WUHU216HW,2013-03-23 09:11:00,
2013-03-23 02:16:00,19.8,16.5,27.69,East,90,0.0,0.0,87,0.00,,,0.00,WUHU216HW,2013-03-23 09:16:00,
2013-03-23 02:20:00,19.8,16.5,27.69,East,90,0.0,0.0,87,0.00,,,0.00,WUHU216HW,2013-03-23 09:20:00,
2013-03-23 02:25:00,19.6,16.3,27.69,East,90,0.0,0.0,87,0.00,,,0.00,WUHU216HW,2013-03-23 09:25:00,
2013-03-23 02:30:00,19.6,16.3,27.69,East,90,0.0,0.0,87,0.00,,,0.00,WUHU216HW,2013-03-23 09:30:00,
2013-03-23 02:35:00,19.6,16.3,27.69,East,90,0.0,0.4,87,0.00,,,0.00,WUHU216HW,2013-03-23 09:35:00,
2013-03-23 02:40:00,19.4,16.4,27.69,ESE,113,0.2,0.4,88,0.00,,,0.00,WUHU216HW,2013-03-23 09:40:00,
2013-03-23 02:45:00,19.3,15.9,27.69,ESE,113,0.0,0.4,87,0.00,,,0.00,WUHU216HW,2013-03-23 09:45:00,
2013-03-23 02:50:00,19.1,15.8,27.69,ESE,113,0.0,0.4,87,0.00,,,0.00,WUHU216HW,2013-03-23 09:50:00,
2013-03-23 02:55:00,19.1,15.8,27.69,ESE,113,0.0,0.2,87,0.00,,,0.00,WUHU216HW,2013-03-23 09:55:00,
2013-03-23 03:00:00,19.1,15.8,27.69,ESE,113,0.4,0.4,87,0.00,,,0.00,WUHU216HW,2013-03-23 10:00:00,
2013-03-23 03:05:00,19.1,16.0,27.69,ESE,113,0.0,0.4,88,0.00,,,0.00,WUHU216HW,2013-03-23 10:05:00,
2013-03-23 03:10:00,18.9,15.8,27.69,ESE,113,0.0,0.4,88,0.00,,,0.00,WUHU216HW,2013-03-23 10:10:00,
2013-03-23 03:15:00,18.7,15.9,27.69,ESE,113,0.0,0.2,89,0.00,,,0.00,WUHU216HW,2013-03-23 10:15:00,
2013-03-23 03:20:00,18.7,15.7,27.69,ESE,113,0.0,0.0,88,0.00,,,0.00,WUHU216HW,2013-03-23 10:20:00,
2013-03-23 03:25:00,18.4,15.0,27.69,ESE,113,0.0,0.2,87,0.00,,,0.00,WUHU216HW,2013-03-23 10:25:00,
2013-03-23 03:30:00,18.4,15.3,27.69,ESE,113,0.0,0.2,88,0.00,,,0.00,WUHU216HW,2013-03-23 10:30:00,
2013-03-23 03:35:00,18.5,15.5,27.69,ESE,113,0.0,0.4,88,0.00,,,0.00,WUHU216HW,2013-03-23 10:35:00,
2013-03-23 03:40:00,18.5,15.5,27.70,ESE,113,0.0,0.4,88,0.00,,,0.00,WUHU216HW,2013-03-23 10:40:00,
2013-03-23 03:45:00,18.5,15.5,27.70,ESE,113,0.0,0.0,88,0.00,,,0.00,WUHU216HW,2013-03-23 10:45:00,
2013-03-23 03:50:00,18.5,15.5,27.70,ESE,113,0.0,0.0,88,0.00,,,0.00,WUHU216HW,2013-03-23 10:50:00,
2013-03-23 03:55:00,18.4,15.3,27.70,ESE,113,0.0,0.0,88,0.00,,,0.00,WUHU216HW,2013-03-23 10:55:00,
2013-03-23 04:00:00,18.2,15.1,27.71,ESE,113,0.0,0.0,88,0.00,,,0.00,WUHU216HW,2013-03-23 11:00:00,
2013-03-23 04:05:00,18.2,15.1,27.71,ESE,113,0.0,0.0,88,0.00,,,0.00,WUHU216HW,2013-03-23 11:05:00,
2013-03-23 04:10:00,18.2,15.1,27.71,ESE,113,0.0,0.0,88,0.00,,,0.00,WUHU216HW,2013-03-23 11:10:00,
2013-03-23 04:15:00,18.2,15.4,27.71,ESE,113,0.0,0.0,89,0.00,,,0.00,WUHU216HW,2013-03-23 11:15:00,
2013-03-23 04:20:00,18.2,15.1,27.71,ESE,113,0.0,0.0,88,0.00,,,0.00,WUHU216HW,2013-03-23 11:20:00,
2013-03-23 04:25:00,18.2,15.4,27.71,ESE,113,0.0,0.0,89,0.00,,,0.00,WUHU216HW,2013-03-23 11:25:00,
2013-03-23 04:30:00,18.0,14.7,27.71,ESE,113,0.0,0.0,87,0.00,,,0.00,WUHU216HW,2013-03-23 11:30:00,
2013-03-23 04:35:00,17.8,14.5,27.72,ESE,113,0.0,0.0,87,0.00,,,0.00,WUHU216HW,2013-03-23 11:35:00,
2013-03-23 04:40:00,17.8,14.5,27.71,ESE,113,0.0,0.0,87,0.00,,,0.00,WUHU216HW,2013-03-23 11:40:00,
2013-03-23 04:45:00,17.8,14.8,27.71,ESE,113,0.0,0.4,88,0.00,,,0.00,WUHU216HW,2013-03-23 11:45:00,
2013-03-23 04:50:00,18.0,14.9,27.71,ESE,113,0.0,0.4,88,0.00,,,0.00,WUHU216HW,2013-03-23 11:50:00,
2013-03-23 04:55:00,18.0,14.9,27.71,ESE,113,0.0,0.4,88,0.00,,,0.00,WUHU216HW,2013-03-23 11:55:00,
2013-03-23 05:00:00,17.8,14.8,27.72,ESE,113,0.0,0.0,88,0.00,,,0.00,WUHU216HW,2013-03-23 12:00:00,
2013-03-23 05:05:00,17.8,14.8,27.72,ESE,113,0.0,0.0,88,0.00,,,0.00,WUHU216HW,2013-03-23 12:05:00,
2013-03-23 05:10:00,17.6,14.3,27.72,ESE,113,0.0,0.0,87,0.00,,,0.00,WUHU216HW,2013-03-23 12:10:00,
2013-03-23 05:15:00,17.6,14.6,27.72,ESE,113,0.0,0.0,88,0.00,,,0.00,WUHU216HW,2013-03-23 12:15:00,
2013-03-23 05:20:00,17.6,14.6,27.72,ESE,113,0.0,0.0,88,0.00,,,0.00,WUHU216HW,2013-03-23 12:20:00,
2013-03-23 05:25:00,17.5,14.1,27.72,ESE,113,0.0,0.0,87,0.00,,,0.00,WUHU216HW,2013-03-23 12:25:00,
2013-03-23 05:30:00,17.5,14.1,27.72,ESE,113,0.0,0.0,87,0.00,,,0.00,WUHU216HW,2013-03-23 12:30:00,
2013-03-23 05:35:00,17.5,14.4,27.72,ESE,113,0.0,0.2,88,0.00,,,0.00,WUHU216HW,2013-03-23 12:35:00,
2013-03-23 05:40:00,17.5,14.4,27.72,ESE,113,0.0,0.2,88,0.00,,,0.00,WUHU216HW,2013-03-23 12:40:00,
2013-03-23 05:45:00,17.5,14.4,27.72,ESE,113,0.0,0.2,88,0.00,,,0.00,WUHU216HW,2013-03-23 12:45:00,
2013-03-23 05:50:00,17.3,14.2,27.73,ESE,113,0.0,0.0,88,0.00,,,0.00,WUHU216HW,2013-03-23 12:50:00,
2013-03-23 05:56:00,17.3,14.2,27.73,ESE,113,0.0,0.0,88,0.00,,,0.00,WUHU216HW,2013-03-23 12:56:00,
2013-03-23 06:01:00,17.1,14.0,27.73,ESE,113,0.0,0.4,88,0.00,,,0.00,WUHU216HW,2013-03-23 13:01:00,
2013-03-23 06:06:00,17.3,14.2,27.73,ESE,113,0.0,0.4,88,0.00,,,0.00,WUHU216HW,2013-03-23 13:06:00,
2013-03-23 06:11:00,17.3,14.2,27.73,ESE,113,0.0,0.0,88,0.00,,,0.00,WUHU216HW,2013-03-23 13:11:00,
2013-03-23 06:16:00,17.3,14.2,27.74,ESE,113,0.0,0.0,88,0.00,,,0.00,WUHU216HW,2013-03-23 13:16:00,
2013-03-23 06:21:00,17.3,14.2,27.74,ESE,113,0.4,0.4,88,0.00,,,0.00,WUHU216HW,2013-03-23 13:21:00,
2013-03-23 06:26:00,17.3,14.2,27.74,ESE,113,0.4,0.4,88,0.00,,,0.00,WUHU216HW,2013-03-23 13:26:00,
2013-03-23 06:31:00,17.1,14.0,27.74,ESE,113,0.0,0.4,88,0.00,,,0.00,WUHU216HW,2013-03-23 13:31:00,
2013-03-23 06:36:00,17.3,14.2,27.74,ESE,113,0.0,0.4,88,0.00,,,0.00,WUHU216HW,2013-03-23 13:36:00,
2013-03-23 06:41:00,17.3,14.5,27.74,ESE,113,0.0,0.4,89,0.00,,,0.00,WUHU216HW,2013-03-23 13:41:00,
2013-03-23 06:46:00,17.3,14.5,27.74,ESE,113,0.0,0.0,89,0.00,,,0.00,WUHU216HW,2013-03-23 13:46:00,
2013-03-23 06:51:00,17.5,14.7,27.74,ESE,113,0.0,0.0,89,0.00,,,0.00,WUHU216HW,2013-03-23 13:51:00,
2013-03-23 06:56:00,17.5,14.7,27.74,ENE,68,0.4,0.7,89,0.00,,,0.00,WUHU216HW,2013-03-23 13:56:00,
2013-03-23 07:01:00,17.5,14.7,27.74,East,90,0.0,0.7,89,0.00,,,0.00,WUHU216HW,2013-03-23 14:01:00,
2013-03-23 07:06:00,17.3,14.2,27.74,East,90,0.4,0.4,88,0.00,,,0.00,WUHU216HW,2013-03-23 14:06:00,
2013-03-23 07:11:00,17.3,14.5,27.74,ENE,68,0.2,0.4,89,0.00,,,0.00,WUHU216HW,2013-03-23 14:11:00,
2013-03-23 07:16:00,17.5,14.7,27.74,ENE,68,0.0,0.4,89,0.00,,,0.00,WUHU216HW,2013-03-23 14:16:00,
2013-03-23 07:21:00,17.6,14.9,27.74,ENE,68,0.0,0.4,89,0.00,,,0.00,WUHU216HW,2013-03-23 14:21:00,
2013-03-23 07:26:00,17.6,14.9,27.74,ENE,68,0.0,0.0,89,0.00,,,0.00,WUHU216HW,2013-03-23 14:26:00,
2013-03-23 07:31:00,17.8,15.0,27.74,ENE,68,0.0,0.0,89,0.00,,,0.00,WUHU216HW,2013-03-23 14:31:00,
2013-03-23 07:36:00,17.8,15.0,27.74,ENE,68,0.0,0.0,89,0.00,,,0.00,WUHU216HW,2013-03-23 14:36:00,
2013-03-23 07:41:00,17.8,14.8,27.75,ENE,68,0.0,0.0,88,0.00,,,0.00,WUHU216HW,2013-03-23 14:41:00,
2013-03-23 07:46:00,18.2,15.7,27.75,ENE,68,0.0,0.0,90,0.00,,,0.00,WUHU216HW,2013-03-23 14:46:00,
2013-03-23 07:52:00,18.4,15.8,27.75,ENE,68,0.0,0.0,90,0.00,,,0.00,WUHU216HW,2013-03-23 14:52:00,
2013-03-23 07:57:00,19.1,16.6,27.74,ENE,68,0.0,0.2,90,0.00,,,0.00,WUHU216HW,2013-03-23 14:57:00,
2013-03-23 08:02:00,19.4,16.9,27.75,ENE,68,0.0,0.2,90,0.00,,,0.00,WUHU216HW,2013-03-23 15:02:00,
2013-03-23 08:07:00,20.0,17.5,27.75,ENE,68,0.4,0.4,90,0.00,,,0.00,WUHU216HW,2013-03-23 15:07:00,
2013-03-23 08:12:00,20.7,18.5,27.75,ENE,68,0.0,0.4,91,0.00,,,0.00,WUHU216HW,2013-03-23 15:12:00,
2013-03-23 08:17:00,21.2,19.0,27.75,SE,135,0.0,0.0,91,0.00,,,0.00,WUHU216HW,2013-03-23 15:17:00,
2013-03-23 08:22:00,22.0,19.4,27.76,North,0,0.0,0.0,90,0.00,,,0.00,WUHU216HW,2013-03-23 15:22:00,
2013-03-23 08:27:00,23.2,21.4,27.76,SSE,158,0.9,3.4,93,0.00,,,0.00,WUHU216HW,2013-03-23 15:27:00,
2013-03-23 08:32:00,24.7,22.9,27.76,ESE,113,1.6,3.4,93,0.00,,,0.00,WUHU216HW,2013-03-23 15:32:00,
2013-03-23 08:37:00,25.6,23.6,27.76,ESE,113,1.3,2.5,92,0.00,,,0.00,WUHU216HW,2013-03-23 15:37:00,
2013-03-23 08:42:00,25.7,23.5,27.76,ESE,113,1.6,2.5,91,0.00,,,0.00,WUHU216HW,2013-03-23 15:42:00,
2013-03-23 08:47:00,26.1,23.9,27.76,South,180,2.0,2.0,91,0.00,,,0.00,WUHU216HW,2013-03-23 15:47:00,
2013-03-23 08:52:00,26.6,24.1,27.76,SSE,158,0.0,2.0,90,0.00,,,0.00,WUHU216HW,2013-03-23 15:52:00,
2013-03-23 08:57:00,27.4,24.6,27.76,SE,135,1.8,2.2,89,0.00,,,0.00,WUHU216HW,2013-03-23 15:57:00,
2013-03-23 09:02:00,27.7,24.3,27.76,SSW,203,0.7,2.2,87,0.00,,,0.00,WUHU216HW,2013-03-23 16:02:00,
2013-03-23 09:07:00,28.1,24.4,27.76,SE,135,3.4,4.5,86,0.00,,,0.00,WUHU216HW,2013-03-23 16:07:00,
2013-03-23 09:12:00,28.4,24.8,27.76,SSE,158,1.8,4.5,86,0.00,,,0.00,WUHU216HW,2013-03-23 16:12:00,
2013-03-23 09:17:00,28.6,25.2,27.76,ESE,113,0.4,4.7,87,0.00,,,0.00,WUHU216HW,2013-03-23 16:17:00,
2013-03-23 09:22:00,28.8,25.1,27.76,ESE,113,1.8,4.7,86,0.00,,,0.00,WUHU216HW,2013-03-23 16:22:00,
2013-03-23 09:27:00,29.2,25.2,27.76,SE,135,3.4,3.6,85,0.00,,,0.00,WUHU216HW,2013-03-23 16:27:00,
2013-03-23 09:32:00,29.7,25.2,27.76,SE,135,3.8,3.8,83,0.00,,,0.00,WUHU216HW,2013-03-23 16:32:00,
2013-03-23 09:37:00,30.1,25.2,27.76,ESE,113,1.6,3.8,82,0.00,,,0.00,WUHU216HW,2013-03-23 16:37:00,
2013-03-23 09:42:00,30.4,25.3,27.76,ESE,113,0.4,2.5,81,0.00,,,0.00,WUHU216HW,2013-03-23 16:42:00,
2013-03-23 09:47:00,31.5,26.6,27.76,ENE,68,1.1,2.0,82,0.00,,,0.00,WUHU216HW,2013-03-23 16:47:00,
2013-03-23 09:52:00,32.8,26.3,27.76,SE,135,2.9,3.1,77,0.00,,,0.00,WUHU216HW,2013-03-23 16:52:00,
2013-03-23 09:57:00,33.5,26.6,27.76,SE,135,2.5,4.0,76,0.00,,,0.00,WUHU216HW,2013-03-23 16:57:00,
2013-03-23 10:02:00,34.2,26.6,27.76,SE,135,3.4,4.0,74,0.00,,,0.00,WUHU216HW,2013-03-23 17:02:00,
2013-03-23 10:07:00,34.2,25.8,27.76,South,180,2.7,4.5,71,0.00,,,0.00,WUHU216HW,2013-03-23 17:07:00,
2013-03-23 10:12:00,33.8,26.0,27.76,ESE,113,2.0,4.7,73,0.00,,,0.00,WUHU216HW,2013-03-23 17:12:00,
2013-03-23 10:17:00,34.4,26.6,27.76,SSE,158,1.6,4.7,73,0.00,,,0.00,WUHU216HW,2013-03-23 17:17:00,
2013-03-23 10:22:00,35.3,27.1,27.76,ENE,68,0.0,4.0,72,0.00,,,0.00,WUHU216HW,2013-03-23 17:22:00,
2013-03-23 10:27:00,36.5,27.4,27.76,ESE,113,4.5,4.5,69,0.00,,,0.00,WUHU216HW,2013-03-23 17:27:00,
2013-03-23 10:32:00,35.5,26.6,27.76,SE,135,2.5,4.5,70,0.00,,,0.00,WUHU216HW,2013-03-23 17:32:00,
2013-03-23 10:37:00,34.6,25.7,27.76,ESE,113,1.1,2.9,70,0.00,,,0.00,WUHU216HW,2013-03-23 17:37:00,
2013-03-23 10:42:00,34.2,25.0,27.76,SE,135,0.2,2.5,69,0.00,,,0.00,WUHU216HW,2013-03-23 17:42:00,
2013-03-23 10:47:00,35.3,26.8,27.76,SW,225,0.9,2.0,71,0.00,,,0.00,WUHU216HW,2013-03-23 17:47:00,
2013-03-23 10:52:00,37.1,27.6,27.76,SSW,203,1.8,3.6,68,0.00,,,0.00,WUHU216HW,2013-03-23 17:52:00,
2013-03-23 10:57:00,37.8,26.6,27.76,SSE,158,0.7,4.7,64,0.00,,,0.00,WUHU216HW,2013-03-23 17:57:00,
2013-03-23 11:02:00,36.7,25.7,27.76,East,90,1.1,4.7,64,0.00,,,0.00,WUHU216HW,2013-03-23 18:02:00,
2013-03-23 11:07:00,36.7,26.8,27.76,ESE,113,0.4,4.3,67,0.00,,,0.00,WUHU216HW,2013-03-23 18:07:00,
2013-03-23 11:12:00,38.0,26.5,27.76,ESE,113,2.7,4.3,63,0.00,,,0.00,WUHU216HW,2013-03-23 18:12:00,
2013-03-23 11:17:00,37.8,26.3,27.76,SE,135,2.2,4.0,63,0.00,,,0.00,WUHU216HW,2013-03-23 18:17:00,
2013-03-23 11:22:00,38.2,26.7,27.76,ESE,113,4.7,4.7,63,0.00,,,0.00,WUHU216HW,2013-03-23 18:22:00,
2013-03-23 11:27:00,37.1,25.7,27.76,SE,135,0.7,4.7,63,0.00,,,0.00,WUHU216HW,2013-03-23 18:27:00,
2013-03-23 11:32:00,36.5,25.9,27.76,WSW,248,1.8,2.2,65,0.00,,,0.00,WUHU216HW,2013-03-23 18:32:00,
2013-03-23 11:37:00,38.3,26.8,27.75,SSW,203,2.5,4.3,63,0.00,,,0.00,WUHU216HW,2013-03-23 18:37:00,
2013-03-23 11:42:00,38.3,25.7,27.76,SE,135,1.6,4.3,60,0.00,,,0.00,WUHU216HW,2013-03-23 18:42:00,
2013-03-23 11:47:00,38.9,26.9,27.75,NE,45,1.6,2.7,62,0.00,,,0.00,WUHU216HW,2013-03-23 18:47:00,
2013-03-23 11:52:00,40.9,27.6,27.75,ESE,113,1.1,3.4,59,0.00,,,0.00,WUHU216HW,2013-03-23 18:52:00,
2013-03-23 11:57:00,41.0,26.5,27.76,SE,135,1.1,3.4,56,0.00,,,0.00,WUHU216HW,2013-03-23 18:57:00,
2013-03-23 12:02:00,39.8,25.3,27.75,North,0,0.0,1.1,56,0.00,,,0.00,WUHU216HW,2013-03-23 19:02:00,
2013-03-23 12:08:00,38.9,25.3,27.75,North,0,0.0,1.1,58,0.00,,,0.00,WUHU216HW,2013-03-23 19:08:00,
2013-03-23 12:13:00,38.5,26.2,27.75,North,0,0.0,0.0,61,0.00,,,0.00,WUHU216HW,2013-03-23 19:13:00,
2013-03-23 12:17:00,39.2,26.5,27.75,North,0,0.0,0.0,60,0.00,,,0.00,WUHU216HW,2013-03-23 19:17:00,
2013-03-23 12:22:00,41.4,26.4,27.75,North,0,0.0,0.0,55,0.00,,,0.00,WUHU216HW,2013-03-23 19:22:00,
2013-03-23 12:28:00,41.4,25.0,27.74,North,0,0.0,0.0,52,0.00,,,0.00,WUHU216HW,2013-03-23 19:28:00,
2013-03-23 12:33:00,40.7,24.8,27.74,North,0,0.0,0.0,53,0.00,,,0.00,WUHU216HW,2013-03-23 19:33:00,
2013-03-23 12:37:00,40.1,25.1,27.74,North,0,0.0,0.0,55,0.00,,,0.00,WUHU216HW,2013-03-23 19:37:00,
2013-03-23 12:43:00,40.5,25.9,27.74,North,0,0.0,0.0,56,0.00,,,0.00,WUHU216HW,2013-03-23 19:43:00,
2013-03-23 12:48:00,41.2,24.4,27.74,North,0,0.0,0.0,51,0.00,,,0.00,WUHU216HW,2013-03-23 19:48:00,
2013-03-23 12:52:00,40.5,24.6,27.73,North,0,0.0,0.0,53,0.00,,,0.00,WUHU216HW,2013-03-23 19:52:00,
2013-03-23 12:57:00,40.3,24.0,27.73,North,0,0.0,0.0,52,0.00,,,0.00,WUHU216HW,2013-03-23 19:57:00,
2013-03-23 13:02:00,40.3,24.0,27.73,North,0,0.0,0.0,52,0.00,,,0.00,WUHU216HW,2013-03-23 20:02:00,
2013-03-23 13:07:00,41.4,25.0,27.72,North,0,0.0,0.0,52,0.00,,,0.00,WUHU216HW,2013-03-23 20:07:00,
2013-03-23 13:12:00,43.6,26.2,27.72,North,0,0.0,0.0,50,0.00,,,0.00,WUHU216HW,2013-03-23 20:12:00,
2013-03-23 13:17:00,44.5,23.8,27.72,North,0,0.0,0.0,44,0.00,,,0.00,WUHU216HW,2013-03-23 20:17:00,
2013-03-23 13:22:00,43.6,23.0,27.72,SW,225,2.7,4.5,44,0.00,,,0.00,WUHU216HW,2013-03-23 20:22:00,
2013-03-23 13:27:00,43.0,23.6,27.72,SW,225,2.2,4.5,46,0.00,,,0.00,WUHU216HW,2013-03-23 20:27:00,
2013-03-23 13:32:00,43.9,23.3,27.73,SSW,203,3.1,5.8,44,0.00,,,0.00,WUHU216HW,2013-03-23 20:32:00,
2013-03-23 13:37:00,42.3,22.3,27.74,SSE,158,0.0,5.8,45,0.00,,,0.00,WUHU216HW,2013-03-23 20:37:00,
2013-03-23 13:42:00,41.8,23.4,27.74,NE,45,1.6,3.1,48,0.00,,,0.00,WUHU216HW,2013-03-23 20:42:00,
2013-03-23 13:48:00,43.7,22.6,27.74,SSW,203,2.5,2.9,43,0.00,,,0.00,WUHU216HW,2013-03-23 20:48:00,
2013-03-23 13:53:00,43.6,23.0,27.74,South,180,3.8,3.8,44,0.00,,,0.00,WUHU216HW,2013-03-23 20:53:00,
2013-03-23 13:58:00,45.4,25.1,27.74,WSW,248,0.2,3.8,45,0.00,,,0.00,WUHU216HW,2013-03-23 20:58:00,
2013-03-23 14:03:00,47.3,24.8,27.74,North,0,0.0,2.9,41,0.00,,,0.00,WUHU216HW,2013-03-23 21:03:00,
2013-03-23 14:08:00,47.7,23.2,27.73,WSW,248,4.5,4.5,38,0.00,,,0.00,WUHU216HW,2013-03-23 21:08:00,
2013-03-23 14:13:00,47.3,22.2,27.73,South,180,2.7,4.5,37,0.00,,,0.00,WUHU216HW,2013-03-23 21:13:00,
2013-03-23 14:18:00,47.0,23.9,27.74,SW,225,4.7,4.7,40,0.00,,,0.00,WUHU216HW,2013-03-23 21:18:00,
2013-03-23 14:23:00,46.3,21.9,27.74,SW,225,5.1,5.6,38,0.00,,,0.00,WUHU216HW,2013-03-23 21:23:00,
2013-03-23 14:28:00,44.3,20.2,27.73,SW,225,4.0,5.6,38,0.00,,,0.00,WUHU216HW,2013-03-23 21:28:00,
2013-03-23 14:33:00,42.8,18.8,27.73,WSW,248,3.1,4.7,38,0.00,,,0.00,WUHU216HW,2013-03-23 21:33:00,
2013-03-23 14:38:00,43.2,19.8,27.73,WSW,248,2.0,4.0,39,0.00,,,0.00,WUHU216HW,2013-03-23 21:38:00,
2013-03-23 14:43:00,42.1,21.2,27.73,SSW,203,2.5,4.3,43,0.00,,,0.00,WUHU216HW,2013-03-23 21:43:00,
2013-03-23 14:48:00,41.4,20.4,27.73,WSW,248,2.5,4.3,43,0.00,,,0.00,WUHU216HW,2013-03-23 21:48:00,
2013-03-23 14:53:00,40.3,20.5,27.73,WSW,248,3.8,5.1,45,0.00,,,0.00,WUHU216HW,2013-03-23 21:53:00,
2013-03-23 14:58:00,40.3,19.4,27.72,SSE,158,2.5,6.7,43,0.00,,,0.00,WUHU216HW,2013-03-23 21:58:00,
2013-03-23 15:03:00,41.8,18.6,27.73,NW,315,1.1,6.7,39,0.00,,,0.00,WUHU216HW,2013-03-23 22:03:00,
2013-03-23 15:08:00,42.8,19.5,27.73,SE,135,2.0,6.3,39,0.00,,,0.00,WUHU216HW,2013-03-23 22:08:00,
2013-03-23 15:13:00,44.3,20.8,27.73,WSW,248,0.7,2.0,39,0.00,,,0.00,WUHU216HW,2013-03-23 22:13:00,
2013-03-23 15:18:00,45.7,20.8,27.73,SW,225,1.8,2.0,37,0.00,,,0.00,WUHU216HW,2013-03-23 22:18:00,
2013-03-23 15:23:00,45.2,21.0,27.73,WSW,248,1.8,3.4,38,0.00,,,0.00,WUHU216HW,2013-03-23 22:23:00,
2013-03-23 15:28:00,43.4,20.0,27.73,SW,225,2.9,3.4,39,0.00,,,0.00,WUHU216HW,2013-03-23 22:28:00,
2013-03-23 15:33:00,41.2,18.7,27.73,SW,225,2.7,3.1,40,0.00,,,0.00,WUHU216HW,2013-03-23 22:33:00,
2013-03-23 15:38:00,39.4,19.7,27.72,SW,225,3.4,6.0,45,0.00,,,0.00,WUHU216HW,2013-03-23 22:38:00,
2013-03-23 15:43:00,39.1,19.9,27.72,NW,315,0.4,6.0,46,0.00,,,0.00,WUHU216HW,2013-03-23 22:43:00,
2013-03-23 15:48:00,39.4,19.7,27.72,SW,225,0.2,2.0,45,0.00,,,0.00,WUHU216HW,2013-03-23 22:48:00,
2013-03-23 15:53:00,39.6,19.4,27.72,WSW,248,1.6,1.8,44,0.00,,,0.00,WUHU216HW,2013-03-23 22:53:00,
2013-03-23 15:58:00,40.0,19.6,27.72,WSW,248,2.9,2.9,44,0.00,,,0.00,WUHU216HW,2013-03-23 22:58:00,
2013-03-23 16:03:00,40.3,20.5,27.72,NE,45,0.4,2.9,45,0.00,,,0.00,WUHU216HW,2013-03-23 23:03:00,
2013-03-23 16:08:00,41.8,21.9,27.71,SW,225,1.8,2.0,45,0.00,,,0.00,WUHU216HW,2013-03-23 23:08:00,
2013-03-23 16:13:00,42.5,22.5,27.72,SSW,203,5.6,6.9,45,0.00,,,0.00,WUHU216HW,2013-03-23 23:13:00,
2013-03-23 16:18:00,42.3,21.8,27.72,SW,225,4.9,6.9,44,0.00,,,0.00,WUHU216HW,2013-03-23 23:18:00,
2013-03-23 16:23:00,41.8,20.8,27.72,SSW,203,4.7,5.4,43,0.00,,,0.00,WUHU216HW,2013-03-23 23:23:00,
2013-03-23 16:28:00,41.4,20.4,27.71,WSW,248,3.1,5.8,43,0.00,,,0.00,WUHU216HW,2013-03-23 23:28:00,
2013-03-23 16:33:00,41.4,20.4,27.72,SE,135,2.0,5.8,43,0.00,,,0.00,WUHU216HW,2013-03-23 23:33:00,
2013-03-23 16:38:00,41.4,21.5,27.71,South,180,1.3,3.8,45,0.00,,,0.00,WUHU216HW,2013-03-23 23:38:00,
2013-03-23 16:43:00,41.8,20.3,27.71,NW,315,0.4,3.4,42,0.00,,,0.00,WUHU216HW,2013-03-23 23:43:00,
2013-03-23 16:48:00,41.8,20.3,27.71,South,180,0.9,4.0,42,0.00,,,0.00,WUHU216HW,2013-03-23 23:48:00,
2013-03-23 16:53:00,41.9,19.4,27.71,SW,225,3.4,3.4,40,0.00,,,0.00,WUHU216HW,2013-03-23 23:53:00,
2013-03-23 16:58:00,42.3,20.3,27.71,SSW,203,2.2,3.4,41,0.00,,,0.00,WUHU216HW,2013-03-23 23:58:00,
2013-03-23 17:03:00,42.3,20.3,27.71,SSE,158,2.2,3.1,41,0.00,,,0.00,WUHU216HW,2013-03-24 00:03:00,
2013-03-23 17:08:00,41.8,20.3,27.71,WSW,248,0.4,3.1,42,0.00,,,0.00,WUHU216HW,2013-03-24 00:08:00,
2013-03-23 17:13:00,41.2,20.3,27.71,WSW,248,2.2,3.1,43,0.00,,,0.00,WUHU216HW,2013-03-24 00:13:00,
2013-03-23 17:18:00,40.7,20.8,27.72,SSW,203,0.0,2.2,45,0.00,,,0.00,WUHU216HW,2013-03-24 00:18:00,
2013-03-23 17:23:00,40.3,21.1,27.72,SW,225,1.8,1.8,46,0.00,,,0.00,WUHU216HW,2013-03-24 00:23:00,
2013-03-23 17:28:00,40.0,21.3,27.72,South,180,2.0,3.8,47,0.00,,,0.00,WUHU216HW,2013-03-24 00:28:00,
2013-03-23 17:33:00,39.2,21.6,27.72,North,0,0.9,3.8,49,0.00,,,0.00,WUHU216HW,2013-03-24 00:33:00,
2013-03-23 17:38:00,38.7,22.1,27.72,SSW,203,1.1,2.2,51,0.00,,,0.00,WUHU216HW,2013-03-24 00:38:00,
2013-03-23 17:43:00,38.5,22.3,27.72,SW,225,1.3,2.7,52,0.00,,,0.00,WUHU216HW,2013-03-24 00:43:00,
2013-03-23 17:48:00,37.6,24.1,27.71,East,90,0.0,4.7,58,0.00,,,0.00,WUHU216HW,2013-03-24 00:48:00,
2013-03-23 17:53:00,36.9,24.0,27.71,East,90,0.2,4.7,59,0.00,,,0.00,WUHU216HW,2013-03-24 00:53:00,
2013-03-23 17:58:00,36.7,24.2,27.71,SSE,158,1.3,2.0,60,0.00,,,0.00,WUHU216HW,2013-03-24 00:58:00,
2013-03-23 18:03:00,37.6,23.7,27.71,ESE,113,0.0,2.0,57,0.00,,,0.00,WUHU216HW,2013-03-24 01:03:00,
2013-03-23 18:08:00,38.7,24.2,27.71,NNE,23,0.0,1.3,56,0.00,,,0.00,WUHU216HW,2013-03-24 01:08:00,
2013-03-23 18:13:00,38.7,24.2,27.71,NNE,23,0.0,0.0,56,0.00,,,0.00,WUHU216HW,2013-03-24 01:13:00,
2013-03-23 18:18:00,38.2,24.2,27.71,NNE,23,0.0,0.0,57,0.00,,,0.00,WUHU216HW,2013-03-24 01:18:00,
2013-03-23 18:23:00,37.4,23.9,27.71,NNE,23,0.2,0.4,58,0.00,,,0.00,WUHU216HW,2013-03-24 01:23:00,
2013-03-23 18:28:00,36.9,24.4,27.71,NNE,23,0.0,0.4,60,0.00,,,0.00,WUHU216HW,2013-03-24 01:28:00,
2013-03-23 18:33:00,36.4,23.9,27.72,NE,45,0.0,0.0,60,0.00,,,0.00,WUHU216HW,2013-03-24 01:33:00,
2013-03-23 18:38:00,36.0,23.6,27.72,NE,45,0.0,0.0,60,0.00,,,0.00,WUHU216HW,2013-03-24 01:38:00,
2013-03-23 18:43:00,35.6,23.2,27.72,ESE,113,1.6,1.6,60,0.00,,,0.00,WUHU216HW,2013-03-24 01:43:00,
2013-03-23 18:48:00,35.6,23.2,27.73,ENE,68,0.0,1.6,60,0.00,,,0.00,WUHU216HW,2013-03-24 01:48:00,
2013-03-23 18:53:00,35.3,23.6,27.73,ESE,113,0.0,1.6,62,0.00,,,0.00,WUHU216HW,2013-03-24 01:53:00,
2013-03-23 18:58:00,35.1,23.4,27.73,SSE,158,1.8,1.8,62,0.00,,,0.00,WUHU216HW,2013-03-24 01:58:00,
2013-03-23 19:03:00,35.1,23.4,27.74,SE,135,1.1,1.8,62,0.00,,,0.00,WUHU216HW,2013-03-24 02:03:00,
2013-03-23 19:08:00,35.1,23.4,27.75,SE,135,0.0,1.1,62,0.00,,,0.00,WUHU216HW,2013-03-24 02:08:00,
2013-03-23 19:13:00,35.1,24.1,27.75,SSW,203,0.4,0.9,64,0.00,,,0.00,WUHU216HW,2013-03-24 02:13:00,
2013-03-23 19:18:00,34.9,23.9,27.74,ENE,68,0.9,3.4,64,0.00,,,0.00,WUHU216HW,2013-03-24 02:18:00,
2013-03-23 19:23:00,34.9,23.6,27.73,ENE,68,0.0,3.4,63,0.00,,,0.00,WUHU216HW,2013-03-24 02:23:00,
2013-03-23 19:28:00,34.7,24.1,27.73,ENE,68,0.0,0.4,65,0.00,,,0.00,WUHU216HW,2013-03-24 02:28:00,
2013-03-23 19:33:00,34.2,23.6,27.73,ENE,68,0.0,0.4,65,0.00,,,0.00,WUHU216HW,2013-03-24 02:33:00,
2013-03-23 19:38:00,33.7,23.0,27.73,ENE,68,0.0,0.0,65,0.00,,,0.00,WUHU216HW,2013-03-24 02:38:00,
2013-03-23 19:43:00,33.1,23.7,27.74,SE,135,0.2,0.4,68,0.00,,,0.00,WUHU216HW,2013-03-24 02:43:00,
2013-03-23 19:48:00,32.6,22.8,27.74,ESE,113,0.2,0.4,67,0.00,,,0.00,WUHU216HW,2013-03-24 02:48:00,
2013-03-23 19:53:00,32.0,22.3,27.74,ESE,113,0.0,0.2,67,0.00,,,0.00,WUHU216HW,2013-03-24 02:53:00,
2013-03-23 19:58:00,31.7,21.6,27.74,ESE,113,0.0,0.0,66,0.00,,,0.00,WUHU216HW,2013-03-24 02:58:00,
2013-03-23 20:03:00,31.0,21.2,27.75,ESE,113,0.0,0.0,67,0.00,,,0.00,WUHU216HW,2013-03-24 03:03:00,
2013-03-23 20:08:00,30.6,21.6,27.75,ESE,113,0.0,0.0,69,0.00,,,0.00,WUHU216HW,2013-03-24 03:08:00,
2013-03-23 20:13:00,30.2,21.6,27.75,ESE,113,0.0,0.0,70,0.00,,,0.00,WUHU216HW,2013-03-24 03:13:00,
2013-03-23 20:18:00,29.9,21.2,27.75,ESE,113,0.0,0.0,70,0.00,,,0.00,WUHU216HW,2013-03-24 03:18:00,
2013-03-23 20:23:00,29.7,21.4,27.75,ESE,113,0.0,0.0,71,0.00,,,0.00,WUHU216HW,2013-03-24 03:23:00,
2013-03-23 20:28:00,29.3,21.8,27.74,ENE,68,0.0,0.7,73,0.00,,,0.00,WUHU216HW,2013-03-24 03:28:00,
2013-03-23 20:33:00,29.2,21.6,27.74,NE,45,0.0,0.7,73,0.00,,,0.00,WUHU216HW,2013-03-24 03:33:00,
2013-03-23 20:38:00,28.8,21.3,27.74,NE,45,0.0,0.4,73,0.00,,,0.00,WUHU216HW,2013-03-24 03:38:00,
2013-03-23 20:43:00,28.4,21.3,27.74,NE,45,0.4,0.4,74,0.00,,,0.00,WUHU216HW,2013-03-24 03:43:00,
2013-03-23 20:48:00,28.4,21.5,27.74,NE,45,0.4,0.4,75,0.00,,,0.00,WUHU216HW,2013-03-24 03:48:00,
2013-03-23 20:53:00,28.1,21.4,27.73,NE,45,0.0,0.4,76,0.00,,,0.00,WUHU216HW,2013-03-24 03:53:00,
2013-03-23 20:59:00,27.9,21.2,27.73,NE,45,0.0,0.4,76,0.00,,,0.00,WUHU216HW,2013-03-24 03:59:00,
2013-03-23 21:00:00,27.9,21.0,27.73,NE,45,0.0,0.4,75,0.00,,,0.00,WUHU216HW,2013-03-24 04:00:00,
2013-03-23 21:05:00,27.7,20.8,27.73,NE,45,0.0,0.2,75,0.00,,,0.00,WUHU216HW,2013-03-24 04:05:00,
2013-03-23 21:10:00,27.5,20.9,27.73,NE,45,0.0,0.2,76,0.00,,,0.00,WUHU216HW,2013-03-24 04:10:00,
2013-03-23 21:15:00,27.4,21.1,27.73,NE,45,0.0,0.2,77,0.00,,,0.00,WUHU216HW,2013-03-24 04:15:00,
2013-03-23 21:20:00,27.0,20.7,27.73,NE,45,0.0,0.0,77,0.00,,,0.00,WUHU216HW,2013-03-24 04:20:00,
2013-03-23 21:25:00,27.0,20.7,27.73,NE,45,0.0,0.0,77,0.00,,,0.00,WUHU216HW,2013-03-24 04:25:00,
2013-03-23 21:30:00,26.6,20.4,27.73,NE,45,0.0,0.0,77,0.00,,,0.00,WUHU216HW,2013-03-24 04:30:00,
2013-03-23 21:35:00,26.5,20.4,27.72,NE,45,0.0,0.0,78,0.00,,,0.00,WUHU216HW,2013-03-24 04:35:00,
2013-03-23 21:40:00,26.3,20.6,27.72,NE,45,0.0,0.0,79,0.00,,,0.00,WUHU216HW,2013-03-24 04:40:00,
2013-03-23 21:45:00,26.3,20.6,27.72,NE,45,0.0,0.0,79,0.00,,,0.00,WUHU216HW,2013-03-24 04:45:00,
2013-03-23 21:50:00,26.1,20.4,27.72,NE,45,0.0,0.0,79,0.00,,,0.00,WUHU216HW,2013-03-24 04:50:00,
2013-03-23 21:55:00,25.9,20.6,27.72,NE,45,0.0,0.0,80,0.00,,,0.00,WUHU216HW,2013-03-24 04:55:00,
2013-03-23 22:00:00,25.9,20.9,27.72,NE,45,0.0,0.0,81,0.00,,,0.00,WUHU216HW,2013-03-24 05:00:00,
2013-03-23 22:05:00,25.7,20.7,27.71,NE,45,0.0,0.0,81,0.00,,,0.00,WUHU216HW,2013-03-24 05:05:00,
2013-03-23 22:10:00,25.7,20.4,27.71,NE,45,0.0,0.0,80,0.00,,,0.00,WUHU216HW,2013-03-24 05:10:00,
2013-03-23 22:15:00,25.7,20.4,27.71,NE,45,0.0,0.0,80,0.00,,,0.00,WUHU216HW,2013-03-24 05:15:00,
2013-03-23 22:20:00,25.6,20.3,27.72,NE,45,0.0,0.0,80,0.00,,,0.00,WUHU216HW,2013-03-24 05:20:00,
2013-03-23 22:25:00,25.6,20.8,27.72,NE,45,0.0,0.0,82,0.00,,,0.00,WUHU216HW,2013-03-24 05:25:00,
2013-03-23 22:30:00,25.6,20.8,27.72,NE,45,0.0,0.0,82,0.00,,,0.00,WUHU216HW,2013-03-24 05:30:00,
2013-03-23 22:35:00,25.4,20.3,27.72,NE,45,0.0,0.0,81,0.00,,,0.00,WUHU216HW,2013-03-24 05:35:00,
2013-03-23 22:40:00,25.4,20.7,27.72,NE,45,0.0,0.0,82,0.00,,,0.00,WUHU216HW,2013-03-24 05:40:00,
2013-03-23 22:45:00,25.2,20.5,27.72,NE,45,0.0,0.0,82,0.00,,,0.00,WUHU216HW,2013-03-24 05:45:00,
2013-03-23 22:50:00,25.2,20.8,27.72,NE,45,0.0,0.0,83,0.00,,,0.00,WUHU216HW,2013-03-24 05:50:00,
2013-03-23 22:55:00,25.2,21.1,27.72,NE,45,0.0,0.0,84,0.00,,,0.00,WUHU216HW,2013-03-24 05:55:00,
2013-03-23 23:00:00,25.2,21.1,27.72,NE,45,0.0,0.0,84,0.00,,,0.00,WUHU216HW,2013-03-24 06:00:00,
2013-03-23 23:05:00,25.0,20.9,27.72,NE,45,0.0,0.0,84,0.00,,,0.00,WUHU216HW,2013-03-24 06:05:00,
2013-03-23 23:10:00,24.8,20.7,27.72,NE,45,0.0,0.0,84,0.00,,,0.00,WUHU216HW,2013-03-24 06:10:00,
2013-03-23 23:15:00,24.8,20.7,27.73,NE,45,0.0,0.0,84,0.00,,,0.00,WUHU216HW,2013-03-24 06:15:00,
2013-03-23 23:20:00,24.5,20.3,27.73,NE,45,0.0,0.0,84,0.00,,,0.00,WUHU216HW,2013-03-24 06:20:00,
2013-03-23 23:25:00,24.3,20.2,27.73,NE,45,0.0,0.0,84,0.00,,,0.00,WUHU216HW,2013-03-24 06:25:00,
2013-03-23 23:30:00,24.1,19.7,27.73,NE,45,0.0,0.0,83,0.00,,,0.00,WUHU216HW,2013-03-24 06:30:00,
2013-03-23 23:35:00,24.1,20.0,27.74,NE,45,0.0,0.0,84,0.00,,,0.00,WUHU216HW,2013-03-24 06:35:00,
2013-03-23 23:40:00,24.1,20.3,27.74,ENE,68,0.0,0.0,85,0.00,,,0.00,WUHU216HW,2013-03-24 06:40:00,
2013-03-23 23:45:00,24.1,20.3,27.74,ENE,68,0.0,0.0,85,0.00,,,0.00,WUHU216HW,2013-03-24 06:45:00,
2013-03-23 23:50:00,23.8,19.6,27.74,ENE,68,0.0,0.0,84,0.00,,,0.00,WUHU216HW,2013-03-24 06:50:00,
2013-03-23 23:55:00,23.8,19.6,27.74,ENE,68,0.0,0.0,84,0.00,,,0.00,WUHU216HW,2013-03-24 06:55:00,